Simultaneous Nadir Overpasses (SNOs) Predictions

Prediction of SNOs between AQUA and NOAA-19 Satellite Orbit:

Table of predicted SNOs for the next 14.0 days since TLE Epoch: 3/1/2019
Index Date (AQUA) Time (AQUA) Lat,Lon (AQUA) SZA (AQUA ) Date (NOAA-19) Time (NOAA-19) Lat,Lon (NOAA-19) SZA (NOAA-19 ) Distance(km) Time Diff (sec)
1 03/03/2019 07:25:24 80.54, 33.01 89.44 03/03/2019 07:25:01 80.52, 32.98 89.44 2.08 23
2 03/03/2019 08:14:51 -80.54,-159.39 90.57 03/03/2019 08:16:05 -80.53,-159.54 90.59 3.10 74
3 03/05/2019 12:59:08 -80.51, 129.92 91.49 03/05/2019 12:58:33 -80.53, 129.78 91.45 3.21 35
4 03/05/2019 13:48:35 80.53, -62.72 88.55 03/05/2019 13:49:29 80.54, -62.74 88.53 0.40 54
5 03/07/2019 18:32:53 80.53,-133.77 87.69 03/07/2019 18:31:58 80.52,-133.64 87.69 2.79 55
6 03/07/2019 19:22:20 -80.53, 33.87 92.33 03/07/2019 19:23:01 -80.53, 33.91 92.35 0.64 41
7 03/10/2019 00:06:38 -80.53, -37.18 93.21 03/10/2019 00:05:30 -80.51, -37.17 93.19 2.24 68
8 03/10/2019 00:56:04 80.53, 130.48 86.78 03/10/2019 00:56:26 80.53, 130.62 86.77 2.65 22
9 03/12/2019 06:29:49 -80.52,-132.93 94.11 03/12/2019 06:29:58 -80.51,-133.10 94.11 3.32 9




NCC Satellite Simultaneous Nadir Overpasses (SNOs) Prediction Service
